This demonstration page uses our WeatherBlox Daily Observations layout. Learn more.

Left ArrowRight Arrow

Hourly Observations for May 27, 2022

Temp ( °F °C ) Dew Point ( °F °C ) Humidity (%) Winds ( mph kmh ) Pressure ( in mb ) Visibility ( mi km ) Precip ( " mm )
12:53 am 00:53 Cloudy with Heavy Rain 65 18.3 62 16.7 90 90 undefined N/A 29.81 1010 10 16 0.03 0.76
1:00 am 01:00 Cloudy with Light Rain 65 18.3 63 17.2 93 93 VRB 5 7 29.82 1010 10 16 0.01 0.25
1:23 am 01:23 Mostly Cloudy 64 17.8 61 16.1 90 90 VRB 6 9 29.81 1009 10 16 0.02 0.51
1:53 am 01:53 Clear 63 17.2 60 15.6 90 90 VRB 3 6 29.81 1009 10 16 0.02 0.51
2:53 am 02:53 Clear 61 16.1 59 15 93 93 Calm 29.80 1009 10 16 0.00 0.00
3:53 am 03:53 Clear 59 15 57 13.9 93 93 Calm 29.79 1009 10 16 0.00 0.00
4:53 am 04:53 Mostly Cloudy 58 14.4 57 13.9 97 97 Calm 29.78 1009 10 16 0.00 0.00
5:53 am 05:53 Mostly Cloudy 59 15 58 14.4 96 96 E 3 6 29.78 1009 10 16 0.00 0.00
6:53 am 06:53 Mostly Cloudy 61 16.1 60 15.6 97 97 Calm 29.80 1009 10 16 0.00 0.00
7:53 am 07:53 Cloudy 62 16.7 60 15.6 93 93 VRB 3 6 29.80 1009 10 16 0.00 0.00
8:24 am 08:24 Mostly Cloudy 65 18.3 62 16.7 90 90 VRB 3 6 29.79 1009 10 16 0.00 0.00
8:34 am 08:34 Partly Cloudy 65 18.3 61 16.1 87 87 VRB 5 7 29.79 1009 10 16 0.00 0.00
8:48 am 08:48 Mostly Cloudy 64 18 61 16 88 88 VRB 7 11 29.80 1009 10 16 0.00 0.00
8:53 am 08:53 Mostly Cloudy 65 18.3 60 15.6 84 84 undefined N/A 29.80 1009 10 16 0.00 0.00
9:36 am 09:36 Mostly Cloudy 64 17.8 59 15 84 84 VRB 5 7 29.79 1009 10 16 0.00 0.00
9:53 am 09:53 Mostly Cloudy with Light Rain 65 18.3 59 15 81 81 undefined N/A 29.80 1009 10 16 0.00 0.00
10:53 am 10:53 Cloudy 63 17.2 59 15 87 87 VRB 5 7 29.78 1009 10 16 0.00 0.00
11:53 am 11:53 Cloudy 64 17.8 57 13.9 78 78 VRB 3 6 29.78 1008 10 16 0.00 0.00
12:53 pm 12:53 Mostly Cloudy 67 19.4 58 14.4 73 73 VRB 6 9 29.77 1008 10 16 0.01 0.25
1:53 pm 13:53 Mostly Cloudy 65 18.3 57 13.9 76 76 WSW 8 13 29.77 1008 10 16 0.02 0.51
2:53 pm 14:53 Mostly Cloudy with Light Rain 63 17.2 57 13.9 81 81 WSW 5 7 29.77 1008 10 16 0.02 0.51
3:48 pm 15:48 Mostly Cloudy with Light Rain 66 19 59 15 78 78 VRB 5 7 29.76 1008 10 16 0.00 0.00
3:53 pm 15:53 Mostly Cloudy 67 19.4 59 15 76 76 VRB 6 9 29.76 1008 10 16 0.00 0.00
4:02 pm 16:02 Mostly Cloudy 67 19.4 60 15.6 79 79 W 6 9 29.76 1008 10 16 0.00 0.00
4:53 pm 16:53 Cloudy with Rain 62 16.7 58 14.4 86 86 W 7 11 29.78 1008 10 16 0.04 1.02
5:53 pm 17:53 Partly Cloudy 64 17.8 60 15.6 87 87 Calm 29.77 1008 10 16 0.01 0.25
6:53 pm 18:53 Cloudy with Light Rain 64 17.8 62 16.7 93 93 Calm 29.79 1009 10 16 0.05 1.27
7:53 pm 19:53 Mostly Cloudy with Light Rain 62 16.7 59 15 90 90 VRB 3 6 29.80 1009 10 16 0.08 2.03
8:53 pm 20:53 Cloudy 62 16.7 60 15.6 93 93 Calm 29.81 1010 10 16 0.00 0.00
9:12 pm 21:12 Mostly Cloudy 61 16.1 60 15.6 97 97 Calm 29.81 1010 10 16 0.00 0.00
9:53 pm 21:53 Cloudy with Light Rain 61 16.1 60 15.6 97 97 Calm 29.82 1010 10 16 0.00 0.00
10:38 pm 22:38 Mostly Cloudy 61 16.1 60 15.6 97 97 Calm 29.83 1010 10 16 0.00 0.00
10:53 pm 22:53 Cloudy 61 16.1 60 15.6 97 97 Calm 29.84 1010 10 16 0.00 0.00
11:44 pm 23:44 Partly Cloudy 61 16.1 59 15 93 93 Calm 29.84 1011 10 16 0.00 0.00
11:53 pm 23:53 Partly Cloudy 60 15.6 59 15 96 96 W 5 7 29.85 1011 10 16 0.00 0.00

Powered by AerisWeather